Date,TemperatureHighF,TemperatureAvgF,TemperatureLowF,DewpointHighF,DewpointAvgF,DewpointLowF,HumidityHigh,HumidityAvg,HumidityLow,PressureMaxIn,PressureMinIn,WindSpeedMaxMPH,WindSpeedAvgMPH,GustSpeedMaxMPH,PrecipitationSumIn
2013-1-1,33.6,22.6,6.1,29.5,17.5,3.8,93,81,68,30.04,29.84,12,2,13,0.00
2013-1-2,26.9,18.4,4.1,21.4,13.9,1.6,92,83,71,30.21,29.98,8,2,15,0.00
2013-1-3,30.0,22.7,13.2,26.6,18.9,10.6,92,85,75,30.21,29.97,13,3,14,0.00
2013-1-4,35.4,31.8,28.9,27.0,23.7,19.9,83,72,55,30.02,29.88,21,6,23,0.00
2013-1-5,35.7,31.7,26.6,27.3,25.1,21.5,83,76,65,30.30,30.02,17,2,20,0.00
2013-1-6,38.5,34.7,31.0,33.0,29.7,24.3,94,82,74,30.08,29.89,10,3,14,0.00
2013-1-7,35.2,29.2,23.2,32.7,24.9,18.9,95,84,68,30.39,30.07,14,2,14,0.00
2013-1-8,41.7,31.3,23.4,25.9,21.9,17.1,86,69,48,30.33,30.20,6,1,8,0.00
2013-1-9,48.7,36.9,23.8,38.0,28.4,20.0,90,72,57,30.32,29.98,20,4,21,0.00
2013-1-10,40.7,36.4,30.7,30.4,28.9,27.5,88,74,63,30.60,30.32,13,1,16,0.00
2013-1-11,43.2,38.8,31.7,39.7,32.8,28.0,93,79,65,30.47,29.96,16,4,16,0.05
2013-1-12,53.6,45.9,38.1,49.0,43.5,36.2,98,91,83,30.06,30.00,9,1,9,0.00
2013-1-13,59.7,52.4,45.1,53.5,49.2,43.8,98,89,78,30.03,29.82,11,2,11,0.01
2013-1-14,51.7,37.9,29.2,49.2,31.7,22.3,93,78,66,30.38,29.77,16,2,16,0.01
2013-1-15,34.0,29.5,26.9,24.6,22.7,21.0,82,76,59,30.39,30.18,7,1,7,0.00
2013-1-16,37.3,32.4,29.4,31.7,27.4,23.2,93,82,62,30.18,29.78,8,2,9,0.00
2013-1-17,35.4,26.2,18.2,30.0,21.1,15.4,90,81,62,30.18,29.86,13,2,16,0.00
2013-1-18,32.4,20.8,13.3,17.4,12.6,6.6,91,72,52,30.41,30.07,17,3,17,0.00
2013-1-19,48.7,42.5,32.3,31.8,25.0,16.6,56,50,39,30.07,29.65,18,6,18,0.00
2013-1-20,47.1,31.9,19.6,35.8,21.1,8.4,88,65,44,30.07,29.48,28,7,29,0.00
2013-1-21,22.9,18.7,13.7,18.0,11.8,2.7,89,74,61,30.06,29.84,9,1,9,0.00
2013-1-22,14.2,9.7,6.1,3.9,0.3,-3.3,78,65,47,30.16,29.88,15,4,16,0.00
2013-1-23,14.8,7.8,3.9,6.4,1.4,-4.1,87,75,56,30.19,30.09,7,1,8,0.00
2013-1-24,15.0,7.4,1.1,9.0,2.7,-1.8,91,81,61,30.49,30.07,13,1,17,0.00
2013-1-25,17.2,12.3,5.9,11.3,7.4,3.6,90,81,66,30.46,30.06,5,1,6,0.00
2013-1-26,23.6,12.9,1.4,15.4,7.7,-1.3,94,80,59,30.38,30.07,7,0,8,0.00
2013-1-27,28.1,21.8,17.9,18.9,16.9,13.0,89,81,64,30.54,30.38,6,1,8,0.00
2013-1-28,43.6,34.6,22.7,42.8,30.9,16.9,97,87,68,30.38,29.88,10,2,11,0.02
2013-1-29,52.6,43.2,34.7,50.7,42.1,33.9,98,96,90,30.07,29.83,7,1,8,0.36
2013-1-30,63.1,56.8,51.5,56.6,51.7,48.3,95,83,73,29.83,29.08,19,8,21,0.01
2013-1-31,55.0,31.8,20.7,52.4,25.8,14.7,94,79,63,29.70,29.05,26,7,28,0.05
2013-2-1,22.7,19.4,17.0,17.6,13.1,10.3,89,76,65,30.18,29.70,11,3,14,0.00
2013-2-2,21.7,17.5,13.4,16.9,11.4,6.6,89,77,64,30.19,29.96,14,4,14,0.00
2013-2-3,27.5,18.5,10.1,19.2,13.3,8.0,92,81,52,29.96,29.75,8,1,8,0.00
2013-2-4,21.7,19.4,17.8,15.9,12.8,9.1,86,75,64,29.94,29.84,12,3,13,0.00
2013-2-5,28.7,21.4,15.4,20.7,16.7,12.2,89,82,67,29.95,29.83,5,0,5,0.00
2013-2-6,28.6,23.9,11.0,24.7,17.5,8.0,92,77,52,30.37,29.87,13,2,15,0.00
2013-2-7,32.2,23.3,9.1,23.0,16.5,6.5,91,76,61,30.43,30.10,10,2,13,0.00
2013-2-8,36.7,31.4,18.8,33.5,27.7,17.1,96,87,62,30.10,29.76,14,2,14,0.00
2013-2-9,22.0,17.6,5.3,17.9,14.9,2.6,93,89,81,30.41,30.02,9,1,11,0.00
2013-2-10,35.9,21.6,2.8,24.0,14.2,0.2,94,75,55,30.41,30.01,13,1,15,0.00
2013-2-11,49.4,38.2,35.5,41.4,30.5,22.1,87,74,56,30.01,29.58,20,6,20,0.08
2013-2-12,35.6,33.3,30.9,28.5,26.3,23.5,80,75,69,29.96,29.72,21,5,21,0.00
2013-2-13,37.8,31.5,24.5,27.1,24.3,22.0,92,75,60,29.93,29.71,8,1,8,0.00
2013-2-14,42.2,33.0,24.7,34.8,28.0,22.5,95,83,55,29.93,29.80,12,2,13,0.06
2013-2-15,38.4,34.8,26.2,35.1,27.5,18.3,94,75,64,30.04,29.80,16,4,17,0.00
2013-2-16,27.7,24.1,21.0,20.1,17.0,12.7,84,74,54,30.05,29.90,7,1,7,0.00
2013-2-17,22.1,16.0,11.7,15.7,10.9,4.8,90,80,66,30.15,29.87,18,2,18,0.00
2013-2-18,32.2,21.9,10.8,19.4,13.0,7.4,87,70,52,30.27,29.95,10,2,11,0.00
2013-2-19,43.7,34.5,25.7,37.1,25.9,16.9,93,72,52,29.95,29.56,15,4,19,0.02
2013-2-20,25.7,21.7,18.7,19.5,15.1,11.3,91,76,61,30.02,29.76,16,5,19,0.00
2013-2-21,21.5,19.1,15.0,18.4,14.2,9.8,88,81,73,30.40,30.00,14,3,15,0.00
2013-2-22,34.1,27.5,21.1,27.6,22.7,18.1,91,82,68,30.39,30.04,16,3,17,0.00
2013-2-23,38.4,34.3,31.4,34.7,30.7,27.0,91,86,79,30.05,29.87,14,3,15,0.03
2013-2-24,32.1,31.1,30.0,28.7,25.3,23.8,88,79,75,30.05,29.85,9,2,10,0.00
2013-2-25,37.0,32.4,25.7,30.2,26.3,22.8,90,78,60,30.24,30.05,10,1,10,0.00
2013-2-26,42.1,32.9,22.0,32.5,27.3,20.3,96,81,59,30.25,29.86,14,3,16,0.03
2013-2-27,38.4,34.9,33.3,36.2,33.6,32.3,97,95,90,29.86,29.57,9,1,10,0.68
2013-2-28,38.7,35.2,33.1,35.0,32.6,31.2,97,90,79,29.71,29.55,6,1,7,0.32
2013-3-1,33.7,30.0,26.1,31.7,27.2,22.2,96,90,81,29.91,29.71,14,2,14,0.01
2013-3-2,26.8,24.5,22.5,24.7,21.0,19.0,92,86,77,29.92,29.84,12,2,12,0.00
2013-3-3,25.8,23.2,21.4,21.3,19.4,17.8,92,86,74,29.87,29.81,10,2,14,0.01
2013-3-4,30.0,25.5,21.5,23.7,20.3,17.8,87,80,69,30.02,29.87,12,3,17,0.00
2013-3-5,32.6,26.5,19.4,24.9,21.7,17.4,94,82,68,30.09,29.96,8,1,11,0.01
2013-3-6,40.1,30.3,17.3,32.8,26.7,15.6,95,87,73,30.13,29.95,5,1,10,0.04
2013-3-7,37.7,33.1,29.9,32.3,29.2,25.8,93,86,72,30.26,30.12,7,1,7,0.01
2013-3-8,37.6,31.7,25.2,27.9,25.6,22.5,94,79,60,30.39,30.24,10,2,12,0.02
2013-3-9,44.4,34.1,22.1,33.1,27.5,20.6,95,78,51,30.41,30.26,5,0,6,0.00
2013-3-10,57.9,48.0,31.1,32.7,28.6,25.0,84,49,34,30.26,30.02,11,3,13,0.00
2013-3-11,53.7,50.7,48.0,46.6,32.9,26.5,77,51,41,30.05,29.73,16,5,18,0.00
2013-3-12,53.7,42.0,35.2,48.3,37.8,30.1,94,85,76,29.92,29.73,14,3,17,0.05
2013-3-13,38.9,33.0,25.4,30.5,24.8,17.1,88,72,57,29.93,29.82,15,4,17,0.00
2013-3-14,32.1,25.4,18.4,21.2,14.0,8.3,89,64,38,30.03,29.91,17,4,21,0.00
2013-3-15,36.9,30.9,22.4,30.8,24.3,16.0,85,76,67,30.03,29.71,16,3,16,0.00
2013-3-16,30.5,26.1,18.2,23.5,20.2,15.5,89,78,67,29.97,29.81,10,1,11,0.00
2013-3-17,29.2,23.9,16.9,25.3,18.8,13.2,94,81,68,30.33,29.96,10,1,10,0.00
2013-3-18,32.6,23.0,14.7,28.9,19.1,11.9,92,85,51,30.34,29.78,19,3,19,0.00
2013-3-19,39.2,33.4,27.0,36.0,29.4,19.7,94,86,67,29.82,29.68,14,3,16,0.11
2013-3-20,33.3,28.0,24.2,25.4,20.1,15.5,85,72,58,29.83,29.77,16,4,18,0.00
2013-3-21,29.7,24.9,17.8,24.7,18.7,14.0,92,78,53,29.83,29.70,11,2,13,0.00
2013-3-22,32.0,28.4,24.8,26.6,24.4,21.3,91,85,75,29.91,29.72,13,4,13,0.00
2013-3-23,36.4,32.5,29.4,27.6,25.5,23.3,86,76,62,30.00,29.89,12,2,15,0.00
2013-3-24,37.6,31.0,24.7,27.6,24.7,22.4,93,78,60,30.00,29.74,8,1,9,0.00
2013-3-25,39.9,33.5,28.8,30.4,27.5,24.5,86,78,64,29.74,29.58,9,1,10,0.00
2013-3-26,46.7,37.3,30.4,33.8,29.4,25.9,88,74,54,29.93,29.71,11,2,13,0.00
2013-3-27,46.1,37.1,32.8,35.9,31.0,26.6,95,79,55,30.05,29.90,11,3,13,0.03
2013-3-28,43.2,37.0,32.9,35.8,32.4,30.6,95,84,65,30.21,30.03,11,2,11,0.00
2013-3-29,47.9,40.4,36.4,36.5,32.8,29.0,87,75,54,30.21,30.12,11,1,12,0.00
2013-3-30,50.6,40.8,30.8,31.2,27.0,21.2,83,60,35,30.20,30.08,11,1,12,0.00
2013-3-31,53.9,42.1,29.7,42.3,32.6,24.6,93,71,44,30.09,29.65,16,3,18,0.13
2013-4-1,42.6,35.7,25.9,40.6,29.9,19.2,94,80,53,29.95,29.59,15,3,18,0.01
2013-4-2,33.9,28.2,23.0,25.7,19.9,15.6,92,71,55,30.10,29.94,16,4,19,0.00
2013-4-3,34.7,29.8,25.6,25.1,19.8,15.3,85,67,47,30.37,30.09,13,3,15,0.00
2013-4-4,56.3,38.7,20.7,26.2,19.8,13.7,87,51,22,30.36,29.94,12,2,13,0.00
2013-4-5,46.4,38.5,29.3,29.3,21.1,13.2,69,50,31,30.15,29.88,12,2,16,0.00
2013-4-6,46.2,35.6,23.0,22.9,19.9,16.5,85,55,31,30.33,30.08,10,2,10,0.00
2013-4-7,71.3,53.7,43.4,47.5,32.0,18.8,76,45,32,30.08,29.75,19,6,23,0.00
2013-4-8,59.4,48.9,38.5,49.0,39.0,33.6,85,70,51,30.14,29.81,10,1,11,0.00
2013-4-9,65.7,54.7,45.6,52.2,45.7,42.1,97,73,51,30.12,29.80,15,2,18,0.68
2013-4-10,48.6,44.7,39.1,47.7,44.0,38.5,98,97,96,30.06,29.88,9,1,9,0.97
2013-4-11,39.1,35.4,32.8,38.6,33.6,30.2,98,93,80,30.16,29.97,7,1,9,0.23
2013-4-12,53.4,42.4,35.4,49.9,40.3,34.9,99,93,81,29.97,29.59,14,4,17,0.49
2013-4-13,44.8,41.7,40.2,39.2,36.3,34.1,88,81,76,29.86,29.79,13,3,13,0.00
2013-4-14,46.3,39.7,34.0,34.5,30.9,28.6,85,71,52,30.22,29.96,4,2,11,0.00
2013-4-15,70.1,51.8,32.4,49.0,40.0,28.5,89,66,45,30.20,30.07,10,4,17,0.00
2013-4-16,67.0,57.7,46.8,61.0,51.4,40.3,95,80,69,30.25,29.99,12,5,19,0.06
2013-4-17,54.5,47.2,36.3,38.8,34.9,32.2,87,63,48,30.36,30.25,8,1,9,0.00
2013-4-18,71.7,58.9,39.9,58.1,48.6,33.4,85,69,51,30.28,29.82,25,8,28,0.00
2013-4-19,72.8,59.9,42.0,61.5,52.6,34.0,89,77,59,29.83,29.42,20,6,22,0.02
2013-4-20,42.7,38.8,31.3,34.0,29.0,23.1,88,68,52,30.41,29.77,24,5,24,0.00
2013-4-21,44.0,35.0,26.7,28.5,24.5,20.5,83,66,48,30.67,30.41,12,1,13,0.00
2013-4-22,56.7,43.7,25.8,31.9,26.0,20.4,86,53,29,30.63,30.39,16,3,17,0.00
2013-4-23,59.7,49.4,36.6,38.7,34.5,28.9,80,58,42,30.41,30.01,12,3,13,0.00
2013-4-24,68.5,54.1,39.9,54.9,43.8,34.5,87,69,56,30.01,29.65,22,6,24,0.01
2013-4-25,55.9,45.5,36.7,39.3,32.7,23.6,90,64,31,30.33,30.01,12,2,16,0.07
2013-4-26,53.7,44.1,34.3,39.3,33.7,28.3,96,70,38,30.48,30.32,10,1,11,0.01
2013-4-27,67.3,50.5,31.9,40.0,34.5,29.5,92,59,30,30.47,30.26,8,1,10,0.00
2013-4-28,71.5,58.2,43.9,48.7,39.9,34.5,89,54,29,30.27,30.07,14,3,16,0.08
2013-4-29,59.8,53.9,50.3,52.1,47.5,43.8,87,79,69,30.09,30.03,12,4,15,0.01
2013-4-30,68.3,62.0,55.0,54.7,52.4,50.3,89,72,59,30.27,30.10,16,4,16,0.01
2013-5-1,74.4,64.0,55.0,51.9,40.7,29.4,81,48,20,30.39,30.26,11,2,12,0.02
2013-5-2,75.5,64.1,49.1,44.2,38.8,33.2,61,41,25,30.45,30.30,11,2,12,0.00
2013-5-3,74.0,63.1,48.4,47.5,43.4,37.9,79,51,32,30.35,30.25,11,2,13,0.00
2013-5-4,71.8,61.4,47.5,45.9,41.5,34.9,75,49,33,30.31,30.18,10,2,11,0.00
2013-5-5,73.8,61.8,45.0,48.5,42.1,32.8,88,53,23,30.24,30.11,12,2,13,0.00
2013-5-6,74.5,62.2,45.4,49.0,39.9,31.4,77,47,24,30.19,30.05,10,2,11,0.00
2013-5-7,77.0,65.7,50.9,56.1,50.3,44.6,91,61,35,30.14,30.03,11,1,13,0.00
2013-5-8,68.0,63.3,56.5,60.5,57.7,50.8,96,82,69,30.09,29.94,9,2,11,0.39
2013-5-9,66.7,58.2,50.5,60.3,55.4,50.0,98,91,75,29.99,29.91,5,0,6,0.13
2013-5-10,72.7,62.2,50.1,61.1,56.8,49.6,98,84,63,30.00,29.77,15,2,18,0.26
2013-5-11,61.2,57.3,49.4,58.0,52.6,45.5,97,85,67,29.79,29.70,8,2,9,0.18
2013-5-12,52.2,46.1,37.1,45.7,35.6,29.0,91,68,42,29.94,29.72,18,5,18,0.00
2013-5-13,48.4,41.4,35.3,34.4,31.5,29.5,80,68,53,30.14,29.93,12,3,14,0.00
2013-5-14,57.1,43.0,29.6,38.5,31.5,27.2,95,68,33,30.17,30.03,8,1,10,0.00
2013-5-15,81.3,63.0,46.0,60.7,49.7,35.2,82,63,42,30.00,29.56,14,3,17,0.02
2013-5-16,75.8,64.4,51.6,50.1,44.6,36.9,83,52,30,30.02,29.76,15,2,17,0.00
2013-5-17,63.7,50.7,38.9,45.2,41.1,36.8,95,72,39,30.23,30.02,6,1,8,0.00
2013-5-18,69.1,55.5,39.3,52.9,45.6,37.5,95,72,48,30.30,30.18,3,0,11,0.00
2013-5-19,73.6,64.2,57.3,61.7,57.3,50.8,89,79,66,30.20,30.06,6,3,12,0.00
2013-5-20,82.4,72.6,62.3,67.3,62.5,58.4,88,72,53,30.08,29.90,5,2,10,0.00
2013-5-21,85.4,71.1,63.2,75.0,66.8,60.5,97,87,58,29.94,29.77,14,1,15,1.06
2013-5-22,85.0,73.1,62.6,71.6,64.5,56.9,98,77,46,29.86,29.70,13,2,14,0.22
2013-5-23,75.3,66.5,48.8,65.4,60.9,47.1,96,83,63,29.86,29.75,11,2,12,0.54
2013-5-24,48.7,42.9,38.8,47.6,39.8,37.6,97,89,71,30.19,29.86,13,2,13,0.13
2013-5-25,55.2,48.3,40.2,41.3,37.9,34.8,87,69,48,30.20,30.14,10,1,12,0.00
2013-5-26,59.7,51.6,43.2,41.8,37.1,32.9,80,60,38,30.24,30.13,12,2,13,0.00
2013-5-27,68.1,56.3,42.7,46.0,39.7,33.5,84,57,30,30.29,30.17,6,1,8,0.00
2013-5-28,62.8,55.7,47.1,60.2,51.1,40.7,98,85,64,30.21,29.98,8,1,9,0.59
2013-5-29,81.2,71.2,60.8,70.8,65.1,60.0,98,82,63,30.07,29.96,14,2,18,0.30
2013-5-30,85.0,73.9,61.4,70.8,65.0,60.2,97,76,48,30.15,30.07,7,1,8,0.00
2013-5-31,88.0,75.9,62.2,70.3,63.8,60.0,96,69,41,30.14,29.96,7,1,8,0.00
2013-6-1,86.3,75.1,62.7,70.3,65.9,60.8,96,75,53,30.01,29.82,12,2,14,0.00
2013-6-2,78.5,70.1,62.6,67.8,63.4,56.8,96,80,57,29.90,29.74,13,2,15,0.10
2013-6-3,63.4,56.8,50.1,58.0,48.3,44.4,90,74,51,30.05,29.90,10,1,10,0.00
2013-6-4,65.4,56.6,47.3,47.0,42.6,34.7,88,62,33,30.20,30.05,10,1,12,0.00
2013-6-5,69.2,56.8,43.1,51.1,45.1,39.9,92,68,40,30.25,30.11,9,1,10,0.00
2013-6-6,58.5,55.3,50.1,56.6,52.8,46.3,97,91,76,30.13,29.88,12,1,12,1.73
2013-6-7,66.0,60.2,57.1,62.8,59.1,56.1,98,96,89,29.88,29.81,5,0,6,0.04
2013-6-8,64.1,59.7,55.8,59.8,57.1,54.4,98,91,82,30.12,29.82,6,0,8,0.02
2013-6-9,73.0,64.1,52.5,60.2,55.6,50.5,96,75,54,30.22,30.12,7,1,7,0.00
2013-6-10,66.8,63.5,57.4,63.8,60.3,54.8,96,90,76,30.17,29.76,8,1,9,0.43
2013-6-11,66.8,63.7,59.9,64.0,61.5,55.9,98,93,84,29.86,29.68,10,1,11,0.29
2013-6-12,71.8,63.5,53.4,59.3,55.9,51.7,97,78,55,29.97,29.82,6,1,7,0.00
2013-6-13,63.7,60.3,55.9,60.8,58.2,55.1,97,93,82,29.83,29.53,13,1,16,0.65
2013-6-14,71.0,61.4,52.3,61.3,56.8,51.5,98,86,61,30.00,29.80,9,1,11,0.00
2013-6-15,72.2,63.9,52.2,57.2,52.6,43.3,95,70,36,30.08,30.00,9,1,10,0.00
2013-6-16,73.1,65.0,56.1,66.0,59.6,53.3,93,83,73,30.00,29.74,9,2,10,0.00
2013-6-17,78.6,67.8,58.1,65.4,60.6,53.6,97,80,44,29.98,29.86,14,1,14,0.07
2013-6-18,66.0,59.4,48.9,58.6,54.1,47.2,98,84,54,30.06,29.93,10,1,10,0.01
2013-6-19,66.8,56.3,44.4,51.4,46.5,43.6,98,73,46,30.25,30.06,8,1,10,0.00
2013-6-20,75.5,59.8,43.2,59.7,50.0,42.1,97,73,46,30.29,30.22,7,0,8,0.00
2013-6-21,80.4,66.7,48.7,62.6,55.3,47.0,96,70,42,30.31,30.21,6,1,8,0.00
2013-6-22,84.9,73.4,57.9,69.3,64.2,56.4,98,75,53,30.23,30.05,8,1,8,0.00
2013-6-23,88.7,76.0,68.9,74.2,68.9,65.4,96,80,56,30.11,30.05,10,1,10,0.22
2013-6-24,86.2,76.8,68.6,72.5,67.8,63.5,91,75,51,30.09,29.98,7,1,7,0.00
2013-6-25,82.6,73.9,64.2,71.0,66.6,62.6,96,79,63,30.00,29.83,8,1,10,0.00
2013-6-26,82.0,74.4,66.8,70.6,67.3,64.6,94,79,62,29.87,29.82,7,1,7,0.00
2013-6-27,80.8,70.6,61.9,72.5,67.0,60.9,98,89,66,29.86,29.65,9,0,9,0.61
2013-6-28,69.3,65.7,61.7,67.4,64.5,60.8,98,96,90,29.65,29.51,5,0,7,0.91
2013-6-29,74.9,66.3,61.3,68.0,64.2,60.7,99,93,76,29.74,29.54,6,0,6,0.79
2013-6-30,77.0,68.1,59.9,68.9,64.5,59.3,99,89,72,29.97,29.73,8,0,8,0.01
2013-7-1,68.6,64.9,61.7,65.9,63.7,61.1,98,96,90,30.07,29.96,4,0,5,0.43
2013-7-2,83.0,69.2,60.7,75.9,66.8,60.1,99,93,73,30.14,30.04,7,0,7,0.19
2013-7-3,84.8,73.6,65.1,76.4,69.9,64.5,99,89,65,30.20,30.12,7,0,9,0.19
2013-7-4,83.8,75.5,68.7,74.6,70.8,67.6,98,86,62,30.22,30.14,6,1,7,0.00
2013-7-5,85.6,76.2,66.2,75.5,71.0,65.4,98,85,64,30.19,30.08,5,1,9,0.08
2013-7-6,83.7,75.6,67.6,74.0,69.4,64.8,98,83,57,30.19,30.07,4,0,6,0.01
2013-7-7,83.3,76.1,70.3,74.1,70.6,65.1,98,84,65,30.10,29.96,6,1,7,0.14
2013-7-8,83.0,74.5,68.6,72.4,68.2,63.6,96,81,64,30.10,30.02,8,1,14,0.00
2013-7-9,81.7,73.1,67.4,74.2,69.6,66.4,97,89,71,30.10,29.96,5,0,5,0.01
2013-7-10,84.7,74.5,68.2,75.2,70.2,63.3,98,87,67,29.96,29.77,8,1,11,0.18
2013-7-11,74.9,69.3,61.1,65.1,61.8,58.3,95,77,64,30.07,29.85,8,1,9,0.00
2013-7-12,75.1,65.7,58.6,65.8,60.7,57.8,98,85,62,30.23,30.07,7,0,8,0.00
2013-7-13,78.3,69.8,60.1,70.9,65.7,59.2,98,88,75,30.31,30.21,8,0,9,0.00
2013-7-14,86.8,76.4,64.8,76.7,70.8,64.2,98,84,62,30.36,30.27,5,0,5,0.00
2013-7-15,86.5,77.1,67.6,76.2,71.7,65.4,97,84,66,30.35,30.26,5,0,5,0.00
2013-7-16,88.0,76.7,65.2,73.9,69.0,62.9,97,79,57,30.34,30.25,7,0,7,0.00
2013-7-17,90.2,78.8,66.5,78.9,72.0,65.0,97,81,59,30.29,30.12,7,1,8,0.00
2013-7-18,90.8,79.7,71.6,78.5,74.0,68.4,97,84,61,30.15,30.00,7,1,7,0.00
2013-7-19,89.6,80.8,69.2,76.5,72.1,66.2,96,76,55,30.01,29.77,14,2,16,0.41
2013-7-20,76.7,70.1,65.4,71.0,66.7,62.6,97,89,75,29.94,29.74,8,1,12,0.19
2013-7-21,76.7,68.6,61.4,66.0,63.2,59.6,98,84,61,30.06,29.93,7,0,10,0.00
2013-7-22,79.4,69.9,59.0,70.8,65.4,58.2,98,87,67,30.06,29.83,5,0,6,0.11
2013-7-23,81.2,72.2,65.7,70.6,67.1,63.4,98,85,60,29.84,29.66,7,0,7,0.28
2013-7-24,67.7,61.2,50.9,63.4,54.1,49.4,96,78,64,30.11,29.73,12,1,12,0.00
2013-7-25,70.6,60.1,48.4,56.8,52.9,47.4,97,79,53,30.17,30.10,9,1,10,0.00
2013-7-26,74.6,63.9,51.6,60.6,56.1,50.3,97,78,51,30.17,30.05,6,0,7,0.00
2013-7-27,79.3,66.4,54.6,68.7,62.4,53.8,98,88,66,30.07,29.90,7,1,8,0.07
2013-7-28,73.2,66.8,59.6,66.8,64.4,58.8,98,92,76,30.04,29.88,7,0,8,0.27
2013-7-29,68.7,61.0,53.7,61.4,57.7,53.0,99,90,69,30.20,30.04,3,0,4,0.00
2013-7-30,73.5,64.5,55.6,62.5,58.4,54.4,97,82,63,30.25,30.18,9,1,9,0.00
2013-7-31,77.1,65.9,52.5,66.2,59.2,51.7,98,81,56,30.22,30.00,5,0,6,0.00
2013-8-1,76.8,68.4,61.3,68.2,63.5,59.8,96,85,69,30.00,29.83,8,1,10,0.00
2013-8-2,74.8,65.9,57.6,66.3,60.7,56.5,98,84,61,29.96,29.88,4,0,5,0.19
2013-8-3,74.5,68.1,62.6,61.7,58.6,52.7,90,73,50,29.97,29.86,8,1,11,0.00
2013-8-4,70.5,63.2,54.9,60.5,55.6,51.5,94,77,59,30.10,29.97,12,1,13,0.00
2013-8-5,72.2,62.1,51.7,59.0,53.5,48.8,95,76,48,30.16,30.07,5,1,7,0.00
2013-8-6,76.3,65.3,51.7,62.2,56.3,50.6,97,75,49,30.11,30.04,6,1,7,0.00
2013-8-7,77.3,70.2,64.1,68.6,64.3,59.1,90,82,71,30.07,29.94,10,2,10,0.00
2013-8-8,84.0,71.7,65.9,73.9,67.8,63.3,98,88,66,30.02,29.95,6,1,7,0.50
2013-8-9,73.6,68.9,61.0,71.1,67.5,59.8,98,95,82,29.99,29.89,6,0,6,0.20
2013-8-10,71.5,65.3,54.3,61.4,57.2,51.7,97,76,56,30.16,29.98,11,1,13,0.00
2013-8-11,72.5,62.7,51.4,60.2,55.8,50.5,98,80,57,30.18,30.08,6,1,9,0.00
2013-8-12,76.3,66.6,57.2,66.7,60.8,55.4,95,82,61,30.11,29.91,5,0,5,0.00
2013-8-13,72.7,65.2,57.4,68.2,60.8,49.5,98,86,69,29.92,29.78,10,1,12,1.93
2013-8-14,66.2,58.3,51.5,56.3,51.7,48.5,93,79,59,30.13,29.88,11,2,12,0.00
2013-8-15,72.0,59.7,47.3,57.7,52.5,46.2,97,79,54,30.19,30.11,6,1,8,0.00
2013-8-16,72.1,61.9,50.1,59.9,54.2,48.4,97,78,48,30.26,30.17,6,0,6,0.00
2013-8-17,76.8,63.6,49.8,62.9,55.9,49.0,98,79,47,30.35,30.26,7,0,7,0.00
2013-8-18,76.2,65.2,56.2,66.2,60.0,55.0,97,85,57,30.31,30.16,4,0,4,0.00
2013-8-19,78.3,68.1,58.8,66.0,60.9,57.0,96,80,52,30.17,30.07,6,1,7,0.00
2013-8-20,79.7,68.0,56.3,67.2,61.3,55.5,98,81,53,30.19,30.11,5,0,6,0.00
2013-8-21,82.8,69.7,57.4,69.4,63.0,56.6,98,81,52,30.22,30.07,3,0,3,0.00
2013-8-22,82.9,70.7,59.8,71.3,66.1,58.8,97,87,60,30.09,29.92,11,1,11,0.12
2013-8-23,72.6,63.9,53.4,63.9,57.9,52.2,97,82,60,30.26,30.02,6,1,8,0.00
2013-8-24,72.7,60.9,47.7,59.7,53.8,47.2,98,80,52,30.40,30.26,6,0,8,0.00
2013-8-25,79.3,64.8,48.9,66.0,57.4,48.1,98,80,48,30.41,30.19,8,1,8,0.00
2013-8-26,80.0,70.2,63.8,71.0,65.7,60.8,96,86,71,30.24,29.94,11,1,13,0.80
2013-8-27,81.5,73.2,65.6,73.8,69.7,65.0,98,89,71,29.99,29.91,4,0,4,0.00
2013-8-28,80.8,72.5,65.8,73.9,69.7,64.9,98,91,78,29.99,29.89,6,0,7,0.09
2013-8-29,80.7,69.9,62.2,72.2,66.7,61.5,99,90,69,30.09,29.98,7,0,7,0.00
2013-8-30,82.9,71.2,59.3,73.0,66.1,58.7,99,86,54,30.07,29.83,4,0,5,0.00
2013-8-31,81.6,73.7,67.8,73.9,69.8,66.6,97,88,70,29.90,29.77,7,0,8,0.00
2013-9-1,79.5,72.2,66.5,71.6,68.4,65.4,98,88,74,29.89,29.77,6,1,8,0.08
2013-9-2,82.8,71.6,63.7,73.7,67.5,57.9,98,88,68,29.83,29.70,8,1,11,0.03
2013-9-3,65.9,62.4,56.2,59.5,57.7,55.1,97,85,74,29.98,29.82,9,1,9,0.00
2013-9-4,75.8,66.7,53.8,61.2,57.0,51.9,94,72,50,30.04,29.98,9,2,10,0.00
2013-9-5,66.1,58.9,45.8,61.1,50.8,42.9,92,76,55,30.26,30.00,12,1,13,0.00
2013-9-6,68.0,55.0,43.4,54.5,47.0,41.5,94,77,47,30.32,30.15,7,0,7,0.00
2013-9-7,66.5,57.9,48.6,59.8,53.2,47.0,97,85,66,30.15,29.91,7,0,7,0.00
2013-9-8,66.0,59.7,45.9,64.4,53.6,44.2,96,82,55,30.18,29.89,10,1,10,0.09
2013-9-9,75.3,59.1,42.3,61.0,51.5,41.5,98,78,53,30.22,30.03,8,1,8,0.00
2013-9-10,89.1,77.0,65.7,77.3,70.1,60.9,95,80,64,30.07,29.99,8,2,9,0.03
2013-9-11,91.0,79.3,71.2,75.6,72.2,64.6,90,80,53,30.10,29.95,10,2,15,0.11
2013-9-12,76.3,69.1,60.6,69.5,65.3,58.7,96,88,78,29.96,29.76,10,1,12,0.17
2013-9-13,61.3,54.9,50.0,59.0,53.1,48.9,97,94,89,30.03,29.77,8,1,11,0.25
2013-9-14,58.9,50.8,43.1,49.2,45.9,41.9,97,84,62,30.19,30.02,7,1,8,0.00
2013-9-15,66.4,53.9,41.3,56.3,47.9,40.5,98,82,51,30.21,30.09,6,0,11,0.00
2013-9-16,57.6,51.0,41.5,53.9,49.2,40.5,98,94,82,30.42,30.11,7,0,11,0.12
2013-9-17,60.5,48.5,36.9,46.7,42.0,36.1,99,81,50,30.54,30.36,7,1,7,0.00
2013-9-18,70.9,55.1,39.1,52.0,45.6,38.0,98,75,33,30.36,30.15,4,1,6,0.00
2013-9-19,74.5,60.3,46.4,58.6,52.0,44.4,96,77,47,30.19,30.06,4,0,5,0.00
2013-9-20,79.0,65.7,50.9,65.4,58.4,50.0,99,80,56,30.08,29.86,8,2,9,0.00
2013-9-21,69.8,63.3,54.1,63.6,59.7,52.3,98,88,75,29.86,29.67,10,2,12,0.59
2013-9-22,55.3,51.8,49.2,52.3,46.4,42.1,95,82,68,30.05,29.76,9,1,12,0.00
2013-9-23,56.1,49.5,40.6,46.1,43.6,39.4,97,81,60,30.18,30.05,8,1,8,0.00
2013-9-24,62.0,49.3,36.7,50.5,43.5,35.9,99,83,48,30.19,30.03,7,0,8,0.00
2013-9-25,66.5,52.9,39.3,54.3,46.3,38.0,98,80,53,30.06,29.98,6,1,6,0.00
2013-9-26,67.6,57.5,40.7,57.3,51.3,39.9,98,81,61,30.20,30.05,8,1,8,0.00
2013-9-27,67.3,53.6,40.7,57.7,49.6,40.2,99,88,61,30.31,30.20,6,0,7,0.00
2013-9-28,70.3,56.3,43.1,59.3,50.6,42.5,98,83,56,30.35,30.24,8,1,9,0.00
2013-9-29,71.8,59.0,46.8,56.7,50.9,45.7,98,76,52,30.24,30.06,7,1,9,0.00
2013-9-30,73.9,60.9,49.7,61.5,54.9,48.0,97,82,58,30.08,29.98,4,0,5,0.00
2013-10-1,73.3,62.6,54.0,61.6,56.9,52.6,98,83,55,30.07,29.97,6,0,7,0.00
2013-10-2,75.1,67.6,56.4,64.8,60.0,54.7,94,77,53,30.07,29.97,9,2,15,0.00
2013-10-3,72.2,62.9,46.5,56.0,50.3,42.6,97,67,37,30.18,30.07,5,0,6,0.00
2013-10-4,76.4,64.6,58.2,68.7,61.8,54.5,98,91,73,30.11,30.02,7,0,8,0.00
2013-10-5,64.8,61.4,59.8,63.0,60.2,58.7,98,96,91,30.14,30.07,4,0,4,0.42
2013-10-6,79.5,68.1,60.1,71.9,64.6,59.5,99,90,69,30.07,29.83,10,2,11,0.23
2013-10-7,71.6,62.2,51.4,66.2,55.6,43.5,95,80,58,30.07,29.66,12,4,12,0.52
2013-10-8,60.4,51.8,42.5,49.9,45.1,41.3,97,79,52,30.41,30.06,7,1,7,0.00
2013-10-9,64.9,50.3,37.2,51.0,42.8,36.5,99,79,38,30.45,30.33,7,0,8,0.00
2013-10-10,62.8,50.4,39.6,49.7,44.5,38.2,97,82,51,30.34,30.21,4,0,4,0.00
2013-10-11,67.2,53.8,44.9,52.7,47.7,42.2,97,82,42,30.21,30.14,6,0,6,0.00
2013-10-12,72.9,55.4,40.1,54.8,43.0,32.9,99,70,24,30.26,30.17,8,1,8,0.00
2013-10-13,69.1,60.8,53.9,61.2,54.6,44.8,91,80,65,30.33,30.26,9,1,9,0.00
2013-10-14,59.1,56.2,51.3,57.2,54.5,49.5,97,94,88,30.37,30.30,6,0,6,0.40
2013-10-15,64.9,57.0,48.7,57.4,53.5,47.9,98,89,75,30.33,30.03,8,1,8,0.00
2013-10-16,63.2,60.5,57.4,58.5,53.4,48.2,94,78,64,30.03,29.82,9,3,11,0.08
2013-10-17,65.0,56.2,46.9,52.5,50.3,44.6,97,81,55,29.93,29.69,6,1,7,0.54
2013-10-18,57.2,51.5,41.5,51.9,44.8,39.1,97,79,59,29.97,29.75,13,3,17,0.01
2013-10-19,60.9,52.8,43.7,48.8,44.5,40.6,95,74,54,29.96,29.68,13,3,15,0.01
2013-10-20,52.4,46.1,41.2,43.7,41.1,38.1,94,83,69,30.03,29.79,11,2,11,0.00
2013-10-21,65.5,55.1,41.2,42.4,40.2,37.6,95,60,37,30.04,29.82,14,3,15,0.00
2013-10-22,56.4,48.4,43.8,49.3,43.3,36.3,96,83,58,29.85,29.78,14,2,14,0.04
2013-10-23,47.5,41.3,36.1,39.0,36.8,34.3,93,84,63,29.87,29.70,11,1,13,0.00
2013-10-24,48.6,41.8,32.4,36.7,33.9,28.0,93,75,47,30.03,29.81,15,4,16,0.00
2013-10-25,49.4,41.5,36.0,39.2,36.5,34.2,94,83,60,30.19,30.03,8,2,9,0.01
2013-10-26,47.2,43.2,40.7,36.2,31.4,27.7,83,63,49,30.17,29.82,17,5,17,0.00
2013-10-27,48.8,42.9,37.3,37.3,35.1,31.7,87,74,61,30.09,29.83,9,2,10,0.00
2013-10-28,49.5,41.9,30.7,40.7,34.1,27.6,90,74,57,30.41,30.07,7,1,12,0.00
2013-10-29,45.3,35.2,24.2,33.0,28.3,22.3,95,77,55,30.48,30.31,6,0,6,0.00
2013-10-30,57.2,44.4,37.7,42.3,38.1,32.6,94,79,55,30.31,30.14,7,0,8,0.00
2013-10-31,63.5,54.5,36.3,58.3,51.5,34.5,96,89,82,30.14,29.48,15,3,16,0.22
2013-11-1,64.3,59.0,51.2,59.3,49.3,40.8,93,72,46,29.71,29.28,22,6,25,0.07
2013-11-2,53.0,46.4,37.2,45.8,43.1,36.1,96,88,68,29.98,29.65,10,1,13,0.23
2013-11-3,37.4,33.3,25.3,36.1,28.3,22.4,96,82,60,30.55,29.98,11,2,12,0.03
2013-11-4,40.7,31.0,20.6,28.4,22.6,19.0,96,74,42,30.67,30.54,9,1,10,0.00
2013-11-5,55.5,48.3,36.1,37.9,32.1,21.1,68,54,44,30.52,30.36,9,4,10,0.00
2013-11-6,64.9,54.2,45.6,52.4,45.5,37.3,88,73,59,30.38,29.87,15,4,19,0.00
2013-11-7,56.0,44.7,37.5,54.0,40.3,31.5,95,85,70,30.00,29.82,11,2,12,0.24
2013-11-8,41.5,37.7,34.7,33.4,30.2,27.5,84,74,60,30.24,29.96,12,3,18,0.00
2013-11-9,51.5,41.5,34.8,40.4,31.0,28.5,81,67,53,30.24,29.82,13,3,13,0.00
2013-11-10,51.6,46.3,42.5,43.2,36.9,31.8,83,70,59,29.99,29.80,15,4,17,0.00
2013-11-11,45.7,39.9,29.9,36.5,32.1,27.2,93,75,55,30.18,29.94,13,3,19,0.00
2013-11-12,32.0,27.8,25.0,27.3,22.5,19.6,91,81,64,30.37,30.10,13,2,16,0.00
2013-11-13,37.6,29.4,19.2,25.5,21.0,15.1,91,72,48,30.43,30.11,13,3,13,0.00
2013-11-14,53.7,43.7,33.9,24.0,16.7,9.1,51,34,21,30.14,30.04,13,4,14,0.00
2013-11-15,54.9,46.6,38.2,27.1,21.6,16.5,51,37,26,30.16,30.08,9,2,10,0.00
2013-11-16,60.2,48.4,35.6,42.4,35.1,25.6,82,61,46,30.28,30.10,10,1,10,0.00
2013-11-17,58.1,54.0,49.3,55.0,49.9,42.3,92,86,75,30.10,29.45,18,5,19,0.01
2013-11-18,57.9,47.8,35.9,55.5,37.2,26.8,94,67,51,29.91,29.42,26,7,27,0.04
2013-11-19,36.9,34.2,29.6,30.6,26.4,22.8,88,73,59,30.45,29.90,18,3,18,0.00
2013-11-20,39.7,29.2,19.6,25.9,22.6,17.4,92,77,54,30.60,30.44,7,1,7,0.00
2013-11-21,44.6,37.8,31.3,35.7,25.0,14.7,85,60,45,30.50,30.35,13,3,13,0.00
2013-11-22,49.1,43.9,33.5,47.1,41.8,29.1,97,92,82,30.29,29.99,14,1,17,0.18
2013-11-23,37.4,28.6,17.3,29.1,23.1,11.3,91,80,56,30.17,29.97,17,4,21,0.00
2013-11-24,23.4,18.4,14.7,16.3,13.4,10.6,91,81,61,30.38,30.12,11,3,15,0.00
2013-11-25,34.6,27.1,16.3,21.5,14.4,9.2,87,61,35,30.39,30.12,13,4,14,0.00
2013-11-26,35.9,33.4,31.6,32.5,28.7,21.8,96,83,65,30.18,29.78,11,2,11,0.10
2013-11-27,33.6,30.5,22.6,32.5,28.6,19.0,97,93,85,29.87,29.58,19,2,19,0.06
2013-11-28,27.7,22.8,18.2,21.8,17.6,13.4,93,80,65,30.42,29.87,10,2,15,0.00
2013-11-29,27.7,21.0,8.5,21.6,16.6,6.2,94,84,61,30.74,30.41,8,0,8,0.00
2013-11-30,30.9,21.2,7.2,23.0,15.7,4.7,93,80,63,30.74,30.24,13,3,15,0.00
2013-12-1,40.2,35.5,29.3,33.5,30.9,23.9,96,84,68,30.21,29.98,7,1,15,0.15
2013-12-2,39.9,35.9,33.8,36.6,33.8,32.2,96,92,84,29.98,29.85,4,0,5,0.17
2013-12-3,38.7,32.0,26.4,32.4,29.0,24.6,97,89,72,30.02,29.90,4,0,4,0.01
2013-12-4,52.4,39.9,28.9,43.1,36.4,27.1,96,88,70,30.05,29.95,7,0,8,0.01
2013-12-5,59.9,51.1,42.4,54.2,46.8,36.8,90,85,74,30.01,29.80,13,4,13,0.00
2013-12-6,42.2,34.1,29.7,37.2,30.3,26.4,94,86,79,30.25,30.01,10,1,10,0.28
2013-12-7,30.1,28.4,26.1,27.3,21.5,15.2,90,75,60,30.49,30.23,11,2,12,0.00
2013-12-8,27.2,24.7,16.9,23.3,19.1,13.0,91,79,69,30.57,30.22,11,3,11,0.00
2013-12-9,42.1,34.6,25.8,36.5,29.3,23.0,90,81,69,30.23,29.85,16,5,18,0.01
2013-12-10,33.1,28.8,24.1,24.4,21.2,17.7,82,73,67,30.00,29.92,14,4,16,0.00
2013-12-11,26.0,21.8,15.5,22.2,17.6,9.5,92,84,76,30.26,30.05,10,2,14,0.00
2013-12-12,21.1,16.7,6.4,14.3,10.1,2.9,88,75,67,30.31,30.03,12,4,13,0.00
2013-12-13,26.3,19.2,12.1,21.3,15.9,8.7,92,87,74,30.38,30.01,10,1,10,0.00
2013-12-14,25.5,15.2,7.9,23.1,12.5,4.3,95,89,83,30.43,29.74,11,1,11,0.00
2013-12-15,27.8,24.8,20.2,26.6,22.0,11.6,96,89,68,29.84,29.59,10,2,12,0.00
2013-12-16,22.4,15.3,0.2,14.3,9.9,-4.1,92,79,66,30.17,29.84,14,2,17,0.00
2013-12-17,31.2,19.2,-1.7,25.1,15.7,-5.0,92,86,73,30.15,29.89,9,1,9,0.00
2013-12-18,31.2,26.5,21.9,26.6,23.2,19.2,92,87,79,30.02,29.91,8,1,8,0.00
2013-12-19,43.9,37.8,25.1,32.8,29.8,17.8,89,73,63,30.06,29.92,9,2,12,0.07
2013-12-20,48.1,42.6,34.8,45.9,38.6,32.0,97,86,70,30.01,29.81,8,1,8,0.01
2013-12-21,56.7,46.2,32.7,53.6,44.6,31.9,98,94,88,29.89,29.78,9,2,11,1.13
2013-12-22,61.1,39.0,32.0,55.3,37.7,31.2,99,95,64,29.99,29.60,17,2,20,0.11
2013-12-23,42.0,36.6,26.6,40.0,32.7,21.2,96,86,71,30.25,29.97,16,2,18,0.01
2013-12-24,26.7,21.3,12.4,23.3,17.9,8.7,92,87,79,30.46,30.19,12,1,12,0.00
2013-12-25,23.8,15.4,3.5,15.8,10.0,0.9,92,79,67,30.52,30.22,10,1,10,0.00
2013-12-26,34.0,27.7,23.8,28.1,21.5,15.6,91,77,70,30.22,30.05,11,4,12,0.00
2013-12-27,34.0,31.2,21.8,28.8,26.3,18.4,88,82,75,30.28,30.11,10,2,10,0.00
2013-12-28,47.3,40.7,28.5,35.4,31.7,24.9,89,70,60,30.12,29.96,14,3,18,0.00
2013-12-29,47.2,42.0,38.0,38.9,33.7,27.7,97,74,49,29.96,29.65,13,3,13,0.20
2013-12-30,38.0,20.0,12.9,33.9,16.3,9.5,93,85,76,30.20,29.72,16,2,16,0.00
2013-12-31,26.0,18.3,14.2,19.9,12.6,7.9,87,78,70,30.23,29.94,16,3,19,0.00
2014-1-1,21.9,17.5,14.2,14.7,10.9,7.8,89,75,62,30.38,30.22,8,2,9,0.00
2014-1-2,14.3,10.7,6.2,11.4,7.9,3.7,89,88,86,30.27,29.92,12,1,12,0.00